Miscellaneous Local Product
Issued by NWS North Platte, NE

Home | Current Version | Previous Version | Graphics & Text | Print | Product List | Glossary On
Versions: 1 2 3 4 5 6 7 8 9 10 11 12 13 14 15 16 17 18 19 20 21 22 23 24 25 26 27 28 29 30 31 32 33 34 35 36 37 38 39 40 41 42 43 44 45 46 47 48 49 50
845
AXUS43 KLBF 152310
MISLBF


WESTERN AND NORTH CENTRAL NEBRASKA HOURLY WEATHER ROUNDUP
NATIONAL WEATHER SERVICE NORTH PLATTE NE
500 PM CST FRI DEC 15 2017

NOTE: "FAIR" INDICATES FEW OR NO CLOUDS BELOW 12,000 FEET WITH NO
SIGNIFICANT WEATHER AND/OR OBSTRUCTIONS TO VISIBILITY.

NOTE: STATIONS NOT REPORTING VARIABLES SUCH AS SKY/WEATHER OR
PRESSURE ARE PROVIDED BY RAWS AND APRS NETWORKS AND ARE NOT UNDER
NATIONAL WEATHER SERVICE QUALITY CONTROL.

...OBSERVATIONS IN AND NEAR THE EASTERN PANHANDLE OF NEBRASKA...

CITY           SKY/WX    TMP DP  RH WIND       PRES   REMARKS
PINE RIDGE     CLOUDY    49  19  30 W3        29.73F
GORDON         FAIR      50  18  28 W9        29.73F
CHADRON        CLOUDY    49  16  26 W6        29.73F
ALLIANCE       CLOUDY    49  17  28 W10       29.77F
SIDNEY         CLOUDY    57  12  17 NW13      29.84R
CRESCENT LAKE    N/A     51  15  23 W6G20       N/A
$$

...OBSERVATIONS IN NORTHERN NEBRASKA AND FAR SOUTHERN SOUTH DAKOTA...

CITY           SKY/WX    TMP DP  RH WIND       PRES   REMARKS
WINNER         FAIR      45  30  55 SW12      29.69F
VALENTINE      CLOUDY    45  29  53 W6        29.72F
THEDFORD       CLOUDY    52  20  29 SW6       29.76F
AINSWORTH      CLOUDY    43  31  63 W8        29.72S
O`NEILL        CLEAR     42  29  60 S6        29.73F
ORD            CLEAR     43  28  55 SW6       29.77F
BROKEN BOW     PTCLDY    47  26  44 SW5       29.78S
VALENTINE NWR    N/A     50  25  37 W6G14       N/A
HALSEY           N/A     54  16  22 W6G13       N/A
BUTTE            N/A     43  31  63 SW6         N/A
EWING            N/A     40  29  64 S3          N/A
$$

...OBSERVATIONS IN SOUTHWEST NEBRASKA AND FAR NORTHEAST COLORADO...

CITY           SKY/WX    TMP DP  RH WIND       PRES   REMARKS
WRAY           FAIR      57   3  11 W6        29.85F
HOLYOKE        FAIR      54  10  17 SW7       29.84F
IMPERIAL       CLOUDY    54  11  18 W7        29.83F
OGALLALA       CLOUDY    51  18  26 W5        29.81S
NORTH PLATTE   CLEAR     51  17  26 W8        29.80F
MCCOOK         CLEAR     54  13  19 SW7       29.83F
LEXINGTON      CLEAR     52  18  26 SW7       29.81F
STAPLETON        N/A     50  18  28 CALM        N/A
GOTHENBURG       N/A     56  17  21 SW3         N/A
CALLAWAY         N/A     49  21  33 SW12        N/A
$$

...OBSERVATIONS IN CENTRAL LINCOLN COUNTY AREA...

CITY           SKY/WX    TMP DP  RH WIND       PRES   REMARKS
N.P. AIRPORT   CLEAR     51  17  26 W8        29.80F
N.P. DOWNTOWN    N/A     53  20  27 CALM        N/A
N.P. SOUTHEAST   N/A     54  18  24 W3          N/A
N.P. HILLCREST   N/A     52  18  26 W6          N/A
$$

...SOME OBSERVATIONS FROM AROUND THE REGION...

CITY           SKY/WX    TMP DP  RH WIND       PRES   REMARKS
DENVER         PTCLDY    59   5  11 W5        29.88F
GRAND JUNCTION CLEAR     44  11  26 CALM      30.17F
LARAMIE        CLOUDY    39  15  37 SW20      29.95F WCI  29
CHEYENNE       CLOUDY    48   9  20 W13       29.90S
CASPER         CLOUDY    40  20  44 SW25G33   29.85F WCI  29
BISMARCK       CLOUDY    43  24  47 W8        29.55S
RAPID CITY     CLOUDY    48  17  29 E3        29.68F
PIERRE         CLOUDY    48  27  44 W13       29.62F
SIOUX FALLS    CLOUDY    37  26  64 S9        29.70F WCI  30
OMAHA          MOCLDY    48  24  39 S10G26    29.82F
GRAND ISLAND   CLEAR     47  24  40 SW14      29.81F
SCOTTSBLUFF    CLOUDY    55  13  18 W16G24    29.80F
KANSAS CITY    PTCLDY    42  22  44 SW12      29.98F
HILL CITY      CLEAR     56  14  19 SW8       29.88F
WICHITA        CLEAR     48  25  40 S14       30.02F
DODGE CITY     CLEAR     52  19  27 SW13      29.97F
OKLAHOMA CITY  CLEAR     47  22  37 SW9       30.13F
DALLAS         PTCLDY    55  21  26 NW6       30.19F
AMARILLO       CLEAR     52  17  25 SW13      30.08F
$$




USA.gov is the U.S. government's official web portal to all federal, state and local government web resources and services.